EN

Hourly Weather Alife

Today, 21 January, Thursday

Time Temperature Precipitation Wind Pressure Humidity
00:00 +8°C° 0.2 mm 2 mps 744 mmHg 94%
01:00 +8°C° 0.2 mm 2 mps 744 mmHg 94%
02:00 +8°C° 0.2 mm 2 mps 744 mmHg 94%
03:00 +8°C° 0.2 mm 2 mps 743 mmHg 94%
04:00 +8°C° 0.2 mm 2 mps 743 mmHg 95%
05:00 +8°C° 0.1 mm 2 mps 743 mmHg 94%
06:00 +8°C° 0.1 mm 2 mps 743 mmHg 94%
07:00 +8°C° 0.1 mm 2 mps 743 mmHg 94%
08:00 +9°C° 0.1 mm 2 mps 743 mmHg 93%
09:00 +9°C° 0.1 mm 2 mps 743 mmHg 92%
10:00 +10°C° 0.1 mm 2 mps 743 mmHg 90%
11:00 +10°C° 0.2 mm 3 mps 743 mmHg 88%
12:00 +11°C° 0.2 mm 4 mps 742 mmHg 85%
13:00 +11°C° 0.2 mm 4 mps 742 mmHg 83%
14:00 +11°C° 0.3 mm 4 mps 742 mmHg 84%
15:00 +11°C° 0.3 mm 3 mps 742 mmHg 85%
16:00 +11°C° 0.3 mm 3 mps 741 mmHg 87%
17:00 +10°C° 0.3 mm 3 mps 742 mmHg 88%
18:00 +10°C° 0.3 mm 2 mps 742 mmHg 90%
19:00 +10°C° 0.3 mm 2 mps 742 mmHg 92%
20:00 +9°C° 0.3 mm 2 mps 742 mmHg 92%
21:00 +9°C° 0.3 mm 2 mps 742 mmHg 93%
22:00 +9°C° 0.3 mm 2 mps 741 mmHg 93%
23:00 +9°C° 0.2 mm 2 mps 741 mmHg 93%

Tomorrow, 22 January, Friday

Time Temperature Precipitation Wind Pressure Humidity
00:00 +9°C° 0.2 mm 3 mps 741 mmHg 93%
01:00 +9°C° 0.2 mm 3 mps 741 mmHg 93%
02:00 +9°C° 0.5 mm 3 mps 740 mmHg 93%
03:00 +9°C° 0.5 mm 3 mps 740 mmHg 94%
04:00 +10°C° 0.5 mm 3 mps 739 mmHg 94%
05:00 +10°C° 0.5 mm 4 mps 739 mmHg 94%
06:00 +10°C° 0.5 mm 4 mps 739 mmHg 94%
07:00 +9°C° 0.5 mm 5 mps 739 mmHg 94%
08:00 +10°C° 0.6 mm 5 mps 739 mmHg 93%
09:00 +10°C° 0.6 mm 6 mps 739 mmHg 92%
10:00 +11°C° 0.6 mm 6 mps 739 mmHg 90%
11:00 +11°C° 0.6 mm 6 mps 738 mmHg 88%
12:00 +11°C° 0.6 mm 6 mps 738 mmHg 85%
13:00 +13°C° 0.6 mm 6 mps 737 mmHg 82%
14:00 +11°C° 0.8 mm 6 mps 737 mmHg 85%
15:00 +11°C° 0.8 mm 6 mps 736 mmHg 88%
16:00 +10°C° 0.8 mm 5 mps 736 mmHg 91%
17:00 +10°C° 0.8 mm 6 mps 735 mmHg 91%
18:00 +10°C° 0.8 mm 6 mps 735 mmHg 91%
19:00 +10°C° 0.8 mm 6 mps 734 mmHg 90%
20:00 +10°C° 1.7 mm 7 mps 734 mmHg 89%
21:00 +10°C° 1.7 mm 8 mps 733 mmHg 89%
22:00 +10°C° 1.7 mm 9 mps 733 mmHg 88%
23:00 +10°C° 2.1 mm 8 mps 732 mmHg 88%

Day after tomorrow, 23 January, Saturday

Time Temperature Precipitation Wind Pressure Humidity
00:00 +10°C° 2.1 mm 8 mps 732 mmHg 88%
01:00 +10°C° 2.1 mm 8 mps 731 mmHg 88%
02:00 +10°C° 2.2 mm 8 mps 731 mmHg 88%
03:00 +9°C° 2.2 mm 8 mps 730 mmHg 88%
04:00 +8°C° 2.2 mm 9 mps 730 mmHg 88%
05:00 +9°C° 1 mm 8 mps 730 mmHg 87%
06:00 +8°C° 1 mm 6 mps 730 mmHg 86%
07:00 +8°C° 1 mm 5 mps 730 mmHg 85%
08:00 +8°C° 0.4 mm 6 mps 730 mmHg 82%
09:00 +8°C° 0.4 mm 7 mps 730 mmHg 79%
10:00 +9°C° 0.4 mm 7 mps 730 mmHg 77%
11:00 +7°C° 0.5 mm 8 mps 730 mmHg 77%
12:00 +7°C° 0.5 mm 8 mps 730 mmHg 77%
13:00 +7°C° 0.5 mm 8 mps 730 mmHg 77%
14:00 +7°C° 0.6 mm 8 mps 730 mmHg 78%
15:00 +6°C° 0.6 mm 8 mps 730 mmHg 79%
16:00 +6°C° 0.6 mm 7 mps 730 mmHg 81%
17:00 +6°C° 0.5 mm 7 mps 730 mmHg 82%
18:00 +7°C° 0.5 mm 6 mps 730 mmHg 82%
19:00 +7°C° 0.5 mm 6 mps 730 mmHg 83%
20:00 +7°C° 0.7 mm 6 mps 730 mmHg 84%
21:00 +5°C° 0.7 mm 6 mps 730 mmHg 84%
22:00 +5°C° 0.7 mm 6 mps 730 mmHg 84%
23:00 +5°C° 0.7 mm 6 mps 730 mmHg 81%

24 January, Sunday

Time Temperature Precipitation Wind Pressure Humidity
00:00 +5°C° 0.7 mm 7 mps 730 mmHg 79%
01:00 +5°C° 0.7 mm 8 mps 731 mmHg 76%
02:00 +5°C° 0.1 mm 7 mps 731 mmHg 76%
03:00 +5°C° 0.1 mm 6 mps 731 mmHg 77%
04:00 +4°C° 0.1 mm 6 mps 731 mmHg 77%
05:00 +5°C° 0.1 mm 5 mps 731 mmHg 81%
06:00 +5°C° 0.1 mm 4 mps 731 mmHg 84%
07:00 +5°C° 0.1 mm 4 mps 731 mmHg 87%
08:00 +7°C° 0.2 mm 3 mps 731 mmHg 88%
09:00 +7°C° 0.2 mm 3 mps 731 mmHg 89%
10:00 +8°C° 0.2 mm 2 mps 731 mmHg 89%
11:00 +8°C° 1.9 mm 3 mps 730 mmHg 91%
12:00 +8°C° 1.9 mm 3 mps 730 mmHg 93%
13:00 +9°C° 1.9 mm 3 mps 729 mmHg 95%
14:00 +8°C° 6 mm 4 mps 728 mmHg 96%
15:00 +8°C° 6 mm 5 mps 726 mmHg 96%
16:00 +8°C° 6 mm 5 mps 725 mmHg 96%
17:00 +8°C° 6.8 mm 6 mps 724 mmHg 96%
18:00 +9°C° 6.8 mm 6 mps 723 mmHg 95%
19:00 +9°C° 6.8 mm 6 mps 722 mmHg 95%
20:00 +9°C° 2 mm 6 mps 722 mmHg 94%
21:00 +8°C° 2 mm 5 mps 722 mmHg 93%
22:00 +8°C° 2 mm 5 mps 722 mmHg 93%
23:00 +7°C° 0.4 mm 4 mps 723 mmHg 91%

25 January, Monday

Time Temperature Precipitation Wind Pressure Humidity
00:00 +6°C° 0.4 mm 4 mps 724 mmHg 90%
01:00 +5°C° 0.4 mm 4 mps 725 mmHg 88%
02:00 +5°C° 0 mm 4 mps 726 mmHg 87%
03:00 +4°C° 0 mm 4 mps 727 mmHg 87%
04:00 +4°C° 0 mm 3 mps 728 mmHg 86%
05:00 +4°C° 0.1 mm 3 mps 728 mmHg 87%
06:00 +3°C° 0.1 mm 3 mps 729 mmHg 87%
07:00 +4°C° 0.1 mm 2 mps 730 mmHg 88%
08:00 +5°C° 0 mm 2 mps 730 mmHg 83%
09:00 +6°C° 0 mm 2 mps 731 mmHg 79%
10:00 +7°C° 0 mm 2 mps 731 mmHg 74%
11:00 +7°C° 0.7 mm 2 mps 731 mmHg 77%
12:00 +7°C° 0.7 mm 1 mps 732 mmHg 79%
13:00 +7°C° 0.7 mm 1 mps 732 mmHg 82%
14:00 +5°C° 1.1 mm 2 mps 732 mmHg 83%
15:00 +4°C° 1.1 mm 2 mps 733 mmHg 83%
16:00 +3°C° 1.1 mm 2 mps 734 mmHg 84%
17:00 +3°C° 0.3 mm 2 mps 735 mmHg 86%
18:00 +4°C° 0.3 mm 1 mps 736 mmHg 87%
19:00 +4°C° 0.3 mm 1 mps 737 mmHg 88%
20:00 +3°C° 0 mm 1 mps 737 mmHg 86%
21:00 +3°C° 0 mm 1 mps 738 mmHg 84%
22:00 +3°C° 0 mm 1 mps 739 mmHg 82%
23:00 +3°C° 0 mm 1 mps 739 mmHg 81%

26 January, Tuesday

Time Temperature Precipitation Wind Pressure Humidity
00:00 +2°C° 0 mm 1 mps 740 mmHg 80%
01:00 +2°C° 0 mm 1 mps 740 mmHg 79%
02:00 +2°C° 0 mm 1 mps 740 mmHg 78%
03:00 +2°C° 0 mm 1 mps 741 mmHg 78%
04:00 +2°C° 0 mm 1 mps 741 mmHg 78%
05:00 +2°C° 0 mm 1 mps 741 mmHg 76%
06:00 +2°C° 0 mm 1 mps 742 mmHg 75%
07:00 +1°C° 0 mm 1 mps 742 mmHg 74%
08:00 +3°C° 0 mm 1 mps 742 mmHg 71%
09:00 +4°C° 0 mm 1 mps 743 mmHg 68%
10:00 +6°C° 0 mm 1 mps 743 mmHg 65%
11:00 +7°C° 0 mm 1 mps 743 mmHg 63%
12:00 +7°C° 0 mm 2 mps 743 mmHg 61%
13:00 +8°C° 0 mm 2 mps 743 mmHg 58%
14:00 +8°C° 0 mm 2 mps 742 mmHg 63%
15:00 +7°C° 0 mm 2 mps 742 mmHg 68%
16:00 +7°C° 0 mm 2 mps 742 mmHg 73%
17:00 +6°C° 0 mm 2 mps 742 mmHg 76%
18:00 +6°C° 0 mm 2 mps 741 mmHg 78%
19:00 +5°C° 0 mm 2 mps 741 mmHg 81%
20:00 +5°C° 0 mm 2 mps 741 mmHg 81%
21:00 +5°C° 0 mm 2 mps 741 mmHg 82%
22:00 +5°C° 0 mm 2 mps 740 mmHg 83%
23:00 +5°C° 0.2 mm 2 mps 740 mmHg 86%
Show more